Weather in Mülheim an der Ruhr

Germany     51°26′18″N   6°53′27″E
temp.,
°C
wind,
m/s
gust,
m/s
humid.,
%
clouds,
%
prec.,
mm/h
press.,
hPa
HPBL,
m
21 may, sat
sat2123:00+12w51090100 0.4 10181037
02:00+11wsw411844 0.4 1020653
05:00+11sw411865 0.0 1020604
08:00+11wsw51079100 0.0 1021850
11:00+15wsw5865100 0.1 10211390
14:00+17w475499 0.2 10211746
17:00+19wnw474854 0.0 10201790
20:00+17nw355893 0.0 1020691
22 may, sun
sun2223:00+13n127745 0.0 102057
02:00+11ene138265 0.0 102096
05:00+11ese128239 0.0 101980
08:00+13e117330 0.0 1018258
11:00+18sw015449 0.0 10171104
14:00+22nne114276 0.0 10151561
17:00+22nnw113992 0.0 10131665
20:00+19ene4656100 0.0 1011519
23 may, mon
mon2323:00+16e397095 0.0 1011332
02:00+14ese2480100 0.0 1009114
05:00+14se2373100 0.0 100761
08:00+17se2868100 0.0 1005318
11:00+22sse464781 0.0 10031012
14:00+19sse3875100 0.4 1002563
17:00+19s4987100 2.1 999422
20:00+18ssw41091100 5.8 998702
24 may, tue
tue2423:00+15wsw61196100 2.5 1000819
02:00+13sw51094100 2.6 1003899
05:00+12sw5109367 0.3 1003801
08:00+12sw5108348 0.4 1005965
11:00+16sw695895 0.1 10061670
14:00+18sw5944100 0.8 10072474
17:00+18w684673 0.0 10082147
20:00+15w376920 0.4 1010850
25 may, wed
wed2523:00+12sw1176100 0.0 101143
02:00+11ssw238694 0.1 101362
05:00+10ssw26881 0.0 1013170
08:00+12sw47721 0.0 1014455
11:00+17sw58493 0.0 10141647
14:00+19wsw6103644 0.0 10132595
17:00+18w61047100 0.0 10131873
20:00+16wsw4106014 0.1 10141360